This is the latest recevied weather packets stored in our database for station/object OH5GWF-1. If no packets are shown the sender has not sent any weather packets the latest 10 day(s).
| Time | Temp. | Humidity | Pressure | Rain* | Wind** | Luminosity | Snow |
|---|---|---|---|---|---|---|---|
| 1777939452 | 6.11° C | 88% | 1000.8 hPa | 0 mm | - | - | - |
| 1777939029 | 6.11° C | 88% | 1000.8 hPa | 0 mm | - | - | - |
| 1777938606 | 6.11° C | 88% | 1000.9 hPa | 0 mm | - | - | - |
| 1777938183 | 6.11° C | 88% | 1001.2 hPa | 0 mm | - | - | - |
| 1777937773 | 6.11° C | 88% | 1001.2 hPa | 0 mm | - | - | - |
| 1777937352 | 6.11° C | 88% | 1001.3 hPa | 0 mm | - | - | - |
| 1777936929 | 6.11° C | 88% | 1001.1 hPa | 0 mm | - | - | - |
| 1777936507 | 6.11° C | 88% | 1001.1 hPa | 0 mm | - | - | - |
| 1777936086 | 6.11° C | 88% | 1001.2 hPa | 0 mm | - | - | - |
| 1777935663 | 6.11° C | 88% | 1001 hPa | 0 mm | - | - | - |
| 1777935253 | 6.11° C | 88% | 1001.1 hPa | 0 mm | - | - | - |
| 1777934831 | 6.67° C | 88% | 1001 hPa | 0 mm | - | - | - |
| 1777934409 | 6.67° C | 88% | 1001.1 hPa | 0 mm | - | - | - |
| 1777933987 | 6.67° C | 88% | 1001.1 hPa | 0 mm | - | - | - |
| 1777933566 | 6.11° C | 88% | 1001.1 hPa | 0 mm | - | - | - |
| 1777933144 | 6.11° C | 88% | 1001.1 hPa | 0 mm | - | - | - |
| 1777932722 | 5.56° C | 88% | 1000.9 hPa | 0 mm | - | - | - |
| 1777932313 | 5° C | 88% | 1000.8 hPa | 0 mm | - | - | - |
| 1777931891 | 5° C | 88% | 1001 hPa | 0 mm | - | - | - |
| 1777931467 | 4.44° C | 88% | 1001 hPa | 0 mm | - | - | - |
| 1777931045 | 4.44° C | 88% | 1000.9 hPa | 0 mm | - | - | - |
| 1777930624 | 3.89° C | 88% | 1000.9 hPa | 0 mm | - | - | - |
| 1777930204 | 4.44° C | 88% | 1000.8 hPa | 0 mm | - | - | - |
| 1777929782 | 4.44° C | 88% | 1000.9 hPa | 0 mm | - | - | - |
| 1777929372 | 4.44° C | 88% | 1000.9 hPa | 0 mm | - | - | - |
* Rain latest hour (hover to see other rain measurements)
** Current wind speed in m/s (hover to see current wind gust speed)